UB3APB-W3 Weather Reports


time (UTC)temp
F
wind
direction
speed
knots
gust
knots
rain 1hr
in
rain 24hr
in
rain mn
in
humidity
%
barometer
mb
20260504023413 45 0.0 0.0 0.00 0.00 0.00 10.2
20260504013226 44 0.0 0.0 0.00 0.00 0.00 10.2
20260504012715 44 0.0 0.0 0.00 0.00 0.00 10.2
20260504012212 44 0.0 0.0 0.00 0.00 0.00 10.2
20260504011703 44 0.0 0.0 0.00 0.00 0.00 10.3
20260504001243 45 0.0 0.0 0.00 0.00 0.00 10.6
20260504000736 45 0.0 0.0 0.00 0.00 0.00 10.6
20260504000230 45 0.0 0.0 0.00 0.00 0.00 10.6
20260503235722 45 0.0 0.0 0.00 0.00 0.00 10.7
20260503235216 45 0.0 0.0 0.00 0.00 0.00 10.7
20260503225034 46 0.0 0.0 0.00 0.00 0.00 10.9
20260503224021 46 0.0 0.0 0.00 0.00 0.00 10.9
20260503223514 46 0.0 0.0 0.00 0.00 0.00 10.9
20260503213333 48 0.0 0.0 0.00 0.00 0.00 11.0
20260503212319 48 0.0 0.0 0.00 0.00 0.00 11.0
20260503211813 48 0.0 0.0 0.00 0.00 0.00 11.0
20260503201644 49 0.0 0.0 0.00 0.00 0.00 10.3
20260503201138 49 0.0 0.0 0.00 0.00 0.00 10.2
20260503200633 49 0.0 0.0 0.00 0.00 0.00 10.1
20260503200121 49 0.0 0.0 0.00 0.00 0.00 10.1
20260503195614 49 0.0 0.0 0.00 0.00 0.00 9.9
20260503195113 49 0.0 0.0 0.00 0.00 0.00 9.9
20260503184935 52 0.0 0.0 0.00 0.00 0.00 9.7
20260503184429 52 0.0 0.0 0.00 0.00 0.00 9.7
20260503183920 52 0.0 0.0 0.00 0.00 0.00 9.7
20260503173235 55 0.0 0.0 0.00 0.00 0.00 9.1
20260503172728 56 0.0 0.0 0.00 0.00 0.00 9.2
20260503171708 57 0.0 0.0 0.00 0.00 0.00 9.1
20260503160114 65 0.0 0.0 0.00 0.00 0.00 9.1
20260503120135 69 0.0 0.0 0.00 0.00 0.00 9.6
20260503081235 66 0.0 0.0 0.00 0.00 0.00 9.2
20260503080733 66 0.0 0.0 0.00 0.00 0.00 9.2
20260503080223 66 0.0 0.0 0.00 0.00 0.00 9.7
20260503053217 59 0.0 0.0 0.00 0.00 0.00 9.2
20260503052710 59 0.0 0.0 0.00 0.00 0.00 9.3
20260503052204 59 0.0 0.0 0.00 0.00 0.00 9.1
20260503051705 60 0.0 0.0 0.00 0.00 0.00 9.0
20260503041150 53 0.0 0.0 0.00 0.00 0.00 9.2
20260503040649 54 0.0 0.0 0.00 0.00 0.00 9.1
20260503040138 55 0.0 0.0 0.00 0.00 0.00 9.2
20260503035629 55 0.0 0.0 0.00 0.00 0.00 9.2
20260503035121 54 0.0 0.0 0.00 0.00 0.00 9.3
20260503024942 45 0.0 0.0 0.00 0.00 0.00 9.0
20260503024432 44 0.0 0.0 0.00 0.00 0.00 9.0
20260503023926 43 0.0 0.0 0.00 0.00 0.00 9.0